Date,TemperatureHighF,TemperatureAvgF,TemperatureLowF,DewpointHighF,DewpointAvgF,DewpointLowF,HumidityHigh,HumidityAvg,HumidityLow,PressureMaxIn,PressureMinIn,WindSpeedMaxMPH,WindSpeedAvgMPH,GustSpeedMaxMPH,PrecipitationSumIn
2013-1-1,44,41,36,43,38,32,95,89,82,30.31,30.06,12,4,17,0.00
2013-1-2,39,35,30,32,30,28,91,82,73,30.37,30.29,9,2,12,0.00
2013-1-3,49,38,30,33,30,28,92,73,48,30.50,30.36,10,3,15,0.00
2013-1-4,48,43,37,33,31,30,79,66,50,30.55,30.39,4,1,6,0.00
2013-1-5,51,43,37,40,38,34,92,82,65,30.39,30.24,6,2,10,0.01
2013-1-6,56,42,33,36,31,27,94,70,36,30.42,30.31,10,2,15,0.00
2013-1-7,56,43,29,38,31,23,83,64,44,30.37,30.13,6,2,12,0.00
2013-1-8,48,47,46,47,42,34,95,84,62,30.13,29.98,9,3,13,1.03
2013-1-9,56,53,48,54,52,46,96,95,95,30.15,29.99,15,5,21,1.51
2013-1-10,58,54,48,57,50,45,96,87,69,30.02,29.91,10,4,16,0.03
2013-1-11,69,58,47,61,50,44,90,78,55,29.98,29.79,13,5,21,0.01
2013-1-12,71,55,36,68,53,33,96,91,83,29.94,29.65,17,6,24,0.80
2013-1-13,43,36,30,33,27,22,88,71,57,30.31,29.94,18,8,23,0.00
2013-1-14,44,34,27,29,24,21,77,67,52,30.38,30.25,15,6,17,0.00
2013-1-15,37,34,29,31,27,23,92,79,67,30.27,30.18,11,5,17,0.09
2013-1-16,47,37,29,29,24,20,79,61,39,30.33,30.20,9,2,10,0.03
2013-1-17,59,44,35,37,32,25,78,62,39,30.53,30.27,9,2,16,0.00
2013-1-18,60,47,32,39,35,28,89,65,43,30.54,30.29,11,3,17,0.00
2013-1-19,63,51,41,47,42,35,87,72,54,30.29,30.16,7,3,14,0.00
2013-1-20,67,53,42,50,45,39,94,75,48,30.23,30.08,5,2,10,0.00
2013-1-21,57,47,38,45,35,27,91,66,49,30.31,30.14,12,4,18,0.00
2013-1-22,62,49,35,48,38,27,78,67,56,30.33,30.21,7,2,11,0.00
2013-1-23,70,58,49,56,51,46,91,78,60,30.29,30.13,12,4,14,0.00
2013-1-24,74,62,55,62,57,53,95,84,61,30.19,30.04,9,4,14,0.00
2013-1-25,63,50,45,59,46,39,95,84,74,30.20,30.02,11,4,15,0.00
2013-1-26,51,47,44,48,45,40,95,91,78,30.24,30.12,7,2,11,0.01
2013-1-27,73,61,48,63,56,46,97,85,63,30.13,29.93,14,4,21,0.01
2013-1-28,76,71,66,66,64,61,88,79,65,30.00,29.84,13,7,20,0.00
2013-1-29,75,66,53,66,60,37,91,81,53,29.84,29.44,17,7,30,0.34
2013-1-30,55,47,40,40,31,25,77,54,37,30.16,29.68,19,7,28,0.00
2013-1-31,67,49,36,35,30,25,73,51,23,30.34,30.10,15,4,21,0.00
2013-2-1,62,45,29,37,29,19,68,55,37,30.42,30.19,10,4,18,0.00
2013-2-2,66,54,46,47,39,34,84,59,31,30.33,30.16,15,3,15,0.00
2013-2-3,69,54,38,41,34,30,85,53,24,30.33,30.00,9,2,12,0.00
2013-2-4,70,60,53,57,48,33,90,67,40,29.99,29.80,11,4,17,0.05
2013-2-5,65,59,54,60,56,53,96,91,84,30.01,29.88,8,3,12,0.01
2013-2-6,74,61,54,63,57,52,95,87,58,30.02,29.88,10,3,17,0.00
2013-2-7,77,60,55,60,52,44,94,76,34,30.08,29.79,19,7,27,0.00
2013-2-8,64,55,43,47,36,28,81,53,27,30.26,30.08,13,4,27,0.00
2013-2-9,60,50,46,58,46,37,94,86,64,30.15,29.77,12,5,22,0.02
2013-2-10,67,58,48,60,38,26,95,52,22,30.03,29.69,11,3,22,0.99
2013-2-11,55,50,44,40,36,32,81,58,44,30.17,30.01,8,4,13,0.00
2013-2-12,48,46,44,46,44,38,94,93,82,30.06,29.86,11,3,18,0.41
2013-2-13,55,46,40,40,37,36,88,72,51,30.18,30.03,15,3,23,0.00
2013-2-14,68,53,39,44,38,34,89,61,30,30.13,30.02,6,2,11,0.00
2013-2-15,51,46,35,39,30,19,76,54,31,30.40,30.10,11,6,22,0.00
2013-2-16,54,41,31,32,28,24,78,61,37,30.44,30.20,6,2,11,0.00
2013-2-17,69,58,40,46,37,29,74,48,27,30.20,29.92,10,7,23,0.00
2013-2-18,77,59,50,56,44,34,81,58,31,30.12,29.74,18,7,25,0.00
2013-2-19,62,55,37,33,27,24,76,35,25,30.34,30.12,11,4,12,0.00
2013-2-20,50,43,40,41,37,32,88,80,50,30.22,29.83,16,6,23,0.11
2013-2-21,66,49,41,50,38,-100,93,68,38,29.94,29.61,18,-5,27,0.05
2013-2-22,49,41,32,38,28,22,81,60,44,30.17,29.93,10,5,16,0.00
2013-2-23,38,33,30,27,26,25,82,75,64,30.11,30.03,7,3,14,0.00
2013-2-25,58,45,39,38,31,-100,85,67,41,29.65,0.00,23,-14,30,0.05
2013-2-26,58,47,41,36,34,32,77,62,40,29.92,29.64,22,6,31,0.01
2013-2-27,56,47,37,35,28,22,83,51,28,30.24,29.90,16,7,22,0.00
2013-2-28,58,46,36,31,28,25,77,53,31,30.31,30.17,16,6,21,0.00
2013-3-1,54,44,34,34,30,27,80,60,42,30.32,30.21,12,4,18,0.00
2013-3-2,53,44,31,29,24,21,74,49,31,30.45,30.25,16,4,18,0.00
2013-3-3,69,55,37,44,33,23,65,44,29,30.25,29.81,14,6,25,0.00
2013-3-4,82,66,54,52,48,43,75,55,30,29.81,29.59,15,7,27,0.00
2013-3-5,64,51,43,46,28,20,69,44,24,30.38,29.75,28,8,33,0.00
2013-3-6,61,48,35,32,24,18,64,41,23,30.48,30.22,10,3,12,0.00
2013-3-7,71,58,44,38,29,20,47,33,21,30.26,30.11,12,5,17,0.00
2013-3-8,63,60,53,56,52,35,82,76,45,30.20,30.00,11,4,17,0.00
2013-3-9,68,64,60,64,59,54,93,85,79,30.01,29.64,18,6,24,0.09
2013-3-10,64,50,43,61,40,31,93,69,54,30.09,29.69,17,6,26,0.91
2013-3-11,58,45,35,33,28,21,81,53,25,30.14,30.02,10,3,17,0.00
2013-3-12,67,51,38,36,30,25,67,45,24,30.31,30.06,8,2,13,0.00
2013-3-13,70,58,40,38,35,32,81,45,26,30.46,30.31,8,2,11,0.00
2013-3-14,75,63,50,49,42,32,60,47,37,30.36,30.17,11,5,15,0.00
2013-3-15,78,63,54,55,50,44,87,64,35,30.18,29.88,11,5,17,0.00
2013-3-16,81,69,57,60,55,47,88,62,45,29.89,29.68,12,7,22,0.00
2013-3-17,74,67,58,62,57,49,85,71,48,29.78,29.66,11,4,19,0.00
2013-3-18,69,62,52,62,47,38,92,60,43,30.02,29.63,15,6,24,0.00
2013-3-19,68,56,44,44,38,34,81,54,35,30.14,29.96,10,4,17,0.00
2013-3-20,67,59,46,36,32,27,65,39,24,30.31,30.04,12,3,16,0.00
2013-3-21,70,59,51,56,41,30,71,51,39,30.04,29.59,23,6,23,0.00
2013-3-22,65,52,46,60,48,42,94,85,68,29.86,29.58,14,5,23,0.00
2013-3-23,54,50,46,49,47,44,95,90,82,29.88,29.68,10,3,19,0.09
2013-3-24,53,46,40,48,31,22,93,59,38,30.19,29.79,25,9,29,0.01
2013-3-25,54,45,33,26,21,17,70,41,24,30.43,30.19,16,6,24,0.00
2013-3-26,57,45,30,28,22,19,66,41,28,30.54,30.33,8,2,10,0.00
2013-3-27,71,58,39,42,34,22,59,42,28,30.35,30.10,15,5,19,0.00
2013-3-28,71,63,51,57,52,41,82,68,53,30.24,30.09,10,5,19,0.00
2013-3-29,77,68,60,60,57,55,83,70,53,30.19,30.02,13,4,17,0.00
2013-3-30,76,66,56,64,60,54,95,81,66,30.10,29.88,10,2,23,1.36
2013-3-31,74,66,57,62,58,50,94,77,53,29.98,29.79,13,4,28,0.73
2013-4-1,80,68,51,55,51,47,94,58,33,30.08,29.94,7,1,11,0.00
2013-4-2,74,65,51,63,56,42,84,73,61,30.02,29.90,12,4,23,0.01
2013-4-3,52,48,45,47,44,43,93,88,73,30.16,29.94,14,4,18,0.60
2013-4-4,52,46,42,44,41,39,93,84,71,30.22,30.12,13,4,18,0.04
2013-4-5,70,58,41,49,45,39,92,65,44,30.26,30.04,5,2,11,0.00
2013-4-6,75,66,54,58,53,48,82,65,49,30.04,29.84,13,5,21,0.00
2013-4-7,72,68,60,62,60,55,86,74,67,29.92,29.74,16,5,22,0.00
2013-4-8,76,71,64,64,62,58,83,73,66,29.77,29.66,16,6,22,0.00
2013-4-9,84,75,68,67,64,61,87,70,51,29.72,29.61,15,6,24,0.00
2013-4-10,74,48,40,68,44,35,92,86,72,29.99,29.68,14,7,24,0.56
2013-4-11,63,50,40,40,36,31,81,61,40,29.99,29.83,16,3,18,0.01
2013-4-12,78,61,44,49,44,38,90,57,30,30.02,29.87,5,1,8,0.00
2013-4-13,80,67,54,53,48,44,75,52,33,30.01,29.78,9,3,15,0.00
2013-4-14,81,69,57,64,58,46,84,68,52,29.78,29.55,18,4,21,0.00
2013-4-15,87,77,67,69,66,64,91,69,50,29.74,29.60,16,6,26,0.00
2013-4-16,89,78,71,69,67,64,85,69,47,29.89,29.74,13,5,18,0.00
2013-4-17,85,78,73,70,68,67,86,73,58,29.87,29.60,19,7,28,0.00
2013-4-18,75,56,46,70,47,34,91,73,52,30.16,29.54,23,9,32,1.11
2013-4-19,64,52,41,36,32,28,75,50,27,30.29,30.14,13,5,19,0.00
2013-4-20,73,59,45,42,38,33,69,47,26,30.22,30.03,12,4,19,0.00
2013-4-21,74,61,48,52,46,37,79,58,42,30.23,30.07,9,3,14,0.00
2013-4-22,79,69,54,60,55,45,76,62,51,30.12,29.85,11,4,19,0.00
2013-4-23,67,55,43,62,50,38,89,83,69,30.18,29.80,19,6,23,0.01
2013-4-24,62,49,40,41,38,34,90,68,40,30.33,30.17,14,5,24,0.09
2013-4-25,75,62,47,48,42,35,68,50,30,30.35,30.16,9,3,15,0.00
2013-4-26,78,68,57,67,58,44,82,71,53,30.18,29.97,11,4,17,0.00
2013-4-27,74,68,59,65,60,54,89,74,55,30.10,29.97,11,3,20,0.00
2013-4-28,83,67,51,67,59,49,94,77,54,30.04,29.86,6,2,11,0.00
2013-4-29,86,74,62,67,61,56,91,67,42,29.90,29.78,9,3,15,0.00
2013-4-30,85,73,62,66,62,56,91,69,49,29.83,29.73,8,3,15,0.00
2013-5-1,86,73,64,68,63,60,90,73,45,29.95,29.78,8,3,13,0.00
2013-5-2,67,52,44,61,46,36,90,81,71,30.33,29.92,19,9,29,0.04
2013-5-3,66,54,40,37,33,27,80,50,23,30.31,30.03,19,7,29,0.00
2013-5-4,72,60,44,44,35,24,79,45,17,30.04,29.89,16,5,26,0.00
2013-5-5,67,56,46,48,43,39,79,64,47,30.16,30.03,11,4,19,0.00
2013-5-6,79,65,49,55,51,45,92,65,41,30.12,29.99,7,2,13,0.00
2013-5-7,86,71,55,58,53,50,84,56,32,30.08,29.93,7,1,9,0.00
2013-5-8,86,76,64,61,57,52,73,53,37,30.00,29.85,12,4,22,0.00
2013-5-9,73,69,66,66,64,58,95,85,61,29.96,29.84,13,3,18,0.32
2013-5-10,82,72,64,67,63,59,96,77,57,30.03,29.87,7,2,10,0.00
2013-5-11,80,70,60,59,53,46,87,57,33,30.16,30.00,16,4,20,0.00
2013-5-12,79,68,54,54,43,36,70,44,24,30.26,30.13,7,2,15,0.00
2013-5-13,86,72,57,55,49,42,68,47,30,30.24,30.10,9,3,12,0.00
2013-5-14,86,72,62,64,58,50,84,61,33,30.15,29.97,8,3,18,0.00
2013-5-15,79,70,62,68,65,60,94,84,65,30.03,29.77,11,5,30,2.43
2013-5-16,82,70,62,72,66,60,96,87,69,29.85,29.74,10,3,18,0.03
2013-5-17,90,78,71,75,71,68,95,82,58,29.85,29.77,10,3,17,0.00
2013-5-18,93,82,72,73,70,67,86,70,51,29.88,29.74,15,5,21,0.00
2013-5-19,91,80,70,72,69,66,88,70,51,29.82,29.65,18,6,26,0.00
2013-5-20,90,79,74,73,70,68,83,73,54,29.80,29.63,16,6,22,0.00
2013-5-21,84,72,62,73,66,60,95,84,64,29.86,29.64,18,4,29,1.71
2013-5-22,87,68,56,68,61,54,96,79,39,29.95,29.83,8,1,9,0.00
2013-5-23,89,78,70,73,70,64,93,76,57,30.06,29.87,9,3,15,0.00
2013-5-24,88,79,68,74,71,66,94,77,59,30.18,29.98,7,3,13,1.22
2013-5-25,85,73,67,73,68,64,95,85,57,30.15,30.02,10,2,17,0.09
2013-5-26,89,79,71,73,70,68,94,77,55,30.08,29.91,11,4,16,0.15
2013-5-27,88,79,72,72,69,67,87,72,53,29.97,29.77,10,5,17,0.00
2013-5-28,88,79,71,70,68,65,86,69,52,29.87,29.75,14,6,24,0.00
2013-5-29,84,77,73,72,70,68,89,79,66,29.82,29.70,15,6,26,0.08
2013-5-30,88,80,74,75,72,69,86,76,62,29.78,29.67,14,6,26,0.01
2013-5-31,91,83,76,76,73,71,85,72,54,29.82,29.65,14,5,21,0.00
2013-6-1,88,80,75,75,72,67,86,77,66,29.93,29.69,17,5,21,0.00
2013-6-2,83,74,66,66,57,50,81,57,33,30.05,29.92,11,3,15,0.00
2013-6-3,91,75,62,65,60,56,83,63,37,29.99,29.83,7,2,11,0.00
2013-6-4,93,81,69,72,67,62,82,64,48,30.01,29.77,11,4,18,0.00
2013-6-5,94,81,72,73,69,66,87,69,44,29.94,29.73,15,2,17,0.00
2013-6-6,80,73,66,72,68,64,95,83,69,29.93,29.77,11,3,24,1.58
2013-6-7,83,73,63,65,60,55,91,65,40,30.00,29.88,10,3,13,0.00
2013-6-8,89,78,63,67,61,56,85,58,43,29.93,29.78,9,2,13,0.00
2013-6-9,89,78,68,72,68,62,94,72,50,29.93,29.83,9,2,18,0.71
2013-6-10,97,84,72,74,69,65,89,63,37,29.94,29.87,6,2,12,0.00
2013-6-11,94,84,75,75,72,67,87,68,50,30.00,29.89,8,3,14,0.00
2013-6-12,94,84,75,75,73,70,91,70,49,30.04,29.90,8,2,14,0.00
2013-6-13,98,86,76,75,72,69,83,64,40,30.03,29.86,6,2,9,0.00
2013-6-14,96,87,76,75,72,70,85,63,44,29.96,29.85,4,1,8,0.00
2013-6-15,92,83,74,78,72,66,85,72,58,29.98,29.85,8,2,21,0.00
2013-6-16,97,85,76,77,72,68,88,67,42,29.99,29.84,9,2,12,0.00
2013-6-17,90,80,69,78,72,66,93,79,61,30.02,29.83,17,2,27,0.59
2013-6-18,83,76,72,74,70,68,89,81,67,29.99,29.86,10,2,13,0.02
2013-6-19,92,80,70,76,72,68,94,78,53,29.98,29.85,9,2,12,0.00
2013-6-20,96,85,76,75,72,68,86,66,43,30.03,29.91,9,3,13,0.00
2013-6-21,96,86,76,75,71,68,84,63,42,30.05,29.93,9,4,16,0.00
2013-6-22,96,86,76,74,70,66,82,61,43,30.03,29.86,11,4,15,0.00
2013-6-23,96,86,76,74,70,66,83,62,40,29.98,29.85,12,4,15,0.00
2013-6-24,96,86,76,75,70,66,82,62,42,30.01,29.86,9,4,16,0.00
2013-6-25,97,87,76,74,70,66,82,59,39,29.97,29.80,11,4,21,0.00
2013-6-26,97,87,76,76,71,65,84,59,47,29.94,29.82,8,4,17,0.00
2013-6-27,99,88,78,76,71,66,77,58,40,29.99,29.83,7,2,13,0.00
2013-6-28,101,88,79,74,69,66,71,55,37,29.92,29.78,14,2,14,0.00
2013-6-29,96,87,76,71,65,58,84,50,31,29.87,29.77,11,3,17,0.00
2013-6-30,89,81,74,68,60,55,80,50,34,29.92,29.79,11,4,20,0.00
2013-7-1,87,79,68,64,60,57,77,54,39,30.01,29.91,12,5,16,0.00
2013-7-2,88,78,66,63,56,48,76,49,27,30.07,29.98,13,3,18,0.00
2013-7-3,92,77,65,64,56,48,76,51,24,30.05,29.92,6,0,9,0.00
2013-7-4,95,82,71,68,62,58,69,53,29,30.00,29.88,12,3,14,0.00
2013-7-5,97,83,70,69,64,60,79,55,33,29.99,29.84,9,2,11,0.00
2013-7-6,97,85,73,72,64,60,73,52,34,29.93,29.83,8,2,14,0.00
2013-7-7,98,86,75,74,68,62,76,57,36,29.98,29.89,9,2,12,0.00
2013-7-8,98,86,76,75,71,68,83,63,42,30.06,29.95,7,2,14,0.00
2013-7-9,99,88,77,74,69,64,82,56,33,30.10,29.94,7,2,12,0.00
2013-7-10,103,90,80,75,70,66,78,54,32,30.03,29.86,8,2,13,0.00
2013-7-11,103,88,79,76,71,66,76,59,32,29.94,29.85,8,2,24,0.00
2013-7-12,101,87,74,75,71,68,89,62,36,29.95,29.85,5,1,13,0.00
2013-7-13,98,89,77,71,66,59,75,50,34,29.98,29.84,9,2,13,0.00
2013-7-14,79,72,69,70,66,59,91,84,51,30.00,29.87,6,1,11,0.06
2013-7-15,76,72,68,71,68,65,94,88,80,30.09,29.94,5,1,11,0.03
2013-7-16,90,79,71,74,72,68,93,79,53,30.21,30.06,9,2,21,0.00
2013-7-17,92,78,70,76,72,68,95,81,51,30.21,30.11,8,2,14,0.01
2013-7-18,91,79,72,75,71,69,89,77,54,30.16,30.10,5,1,6,0.00
2013-7-19,93,80,75,76,73,69,91,79,51,30.02,29.91,8,1,12,0.18
2013-7-20,95,83,73,76,72,70,91,71,48,29.96,29.83,10,2,12,0.00
2013-7-21,97,84,74,78,73,70,91,72,44,29.91,29.81,8,2,18,0.00
2013-7-22,98,90,78,76,73,69,87,60,44,29.95,29.82,9,3,14,0.00
2013-7-23,99,87,79,79,74,65,85,65,46,29.94,29.77,10,4,13,0.00
2013-7-24,94,82,73,76,71,66,90,71,48,30.03,29.82,14,2,21,0.04
2013-7-25,96,83,72,77,72,68,89,69,48,30.03,29.94,7,1,11,0.00
2013-7-26,95,85,76,76,73,70,91,69,49,29.99,29.81,8,2,16,0.11
2013-7-27,91,82,71,72,67,63,87,62,41,29.99,29.88,10,2,15,0.00
2013-7-28,94,82,71,71,68,65,88,65,45,29.98,29.85,7,2,12,0.00
2013-7-29,97,87,77,76,72,62,86,62,40,29.98,29.88,10,4,16,0.00
2013-7-30,97,88,78,75,71,61,82,59,42,30.06,29.91,10,4,15,0.00
2013-7-31,101,91,78,76,71,65,78,55,37,30.03,29.87,7,2,15,0.00
2013-8-1,103,92,77,75,72,68,84,53,36,29.97,29.85,6,2,9,0.00
2013-8-2,103,90,80,74,71,66,76,55,34,29.92,29.82,7,2,13,0.00
2013-8-3,102,92,80,74,70,65,72,49,31,29.98,29.88,11,3,14,0.00
2013-8-4,102,92,80,75,71,66,77,53,33,30.04,29.89,7,2,14,0.00
2013-8-5,103,91,81,73,69,63,72,50,31,29.97,29.81,7,3,14,0.00
2013-8-6,104,91,80,73,70,63,75,52,32,29.88,29.75,9,3,12,0.00
2013-8-7,104,91,79,74,70,65,78,53,33,29.86,29.72,7,3,15,0.00
2013-8-8,101,90,79,75,71,65,80,55,35,29.86,29.73,9,3,13,0.00
2013-8-9,104,90,80,73,66,55,71,47,25,29.92,29.79,8,2,12,0.00
2013-8-10,98,86,75,76,71,63,89,62,41,30.02,29.91,10,3,14,0.00
2013-8-11,102,88,77,76,71,64,82,61,29,30.04,29.91,8,1,24,0.00
2013-8-12,100,89,78,75,71,67,81,58,37,30.02,29.88,6,2,10,0.00
2013-8-13,99,85,76,76,72,67,92,66,39,29.98,29.85,9,2,22,0.32
2013-8-14,89,80,75,75,72,68,93,79,61,30.00,29.91,6,1,11,0.05
2013-8-15,91,78,69,68,64,61,81,64,43,30.06,29.94,8,2,9,0.00
2013-8-16,89,77,67,67,63,59,90,64,42,30.05,29.94,10,2,25,0.03
2013-8-17,90,77,63,62,60,57,87,58,35,30.08,29.95,9,2,16,0.00
2013-8-18,93,79,66,67,61,57,84,57,33,30.08,29.97,7,1,11,0.00
2013-8-19,96,84,71,68,63,57,80,52,29,30.05,29.90,5,2,10,0.00
2013-8-20,98,84,71,67,62,59,72,49,30,30.03,29.92,5,2,9,0.00
2013-8-21,98,85,74,71,66,60,78,55,34,30.07,29.95,7,1,13,0.00
2013-8-22,99,88,77,73,69,65,76,56,35,30.06,29.89,9,1,13,0.00
2013-8-23,101,88,78,74,70,65,75,57,32,30.01,29.87,6,1,16,0.00
2013-8-24,99,88,77,73,68,66,75,54,35,30.03,29.93,9,2,13,0.00
2013-8-25,98,87,76,72,68,64,77,54,36,30.12,30.02,10,2,14,0.00
2013-8-26,97,86,74,71,67,62,82,56,32,30.15,30.02,10,3,16,0.00
2013-8-27,96,83,75,72,70,66,86,67,40,30.11,29.98,6,2,10,0.00
2013-8-28,99,86,74,73,68,65,84,60,34,30.08,29.96,4,1,8,0.00
2013-8-29,102,89,77,71,67,62,77,50,28,30.05,29.92,4,1,7,0.00
2013-8-30,104,90,78,74,66,62,69,46,28,29.98,29.83,7,2,11,0.00
2013-8-31,104,91,79,73,67,63,76,48,29,29.88,29.75,8,2,10,0.00
2013-9-1,103,90,80,73,69,64,70,50,31,29.85,29.73,7,2,16,0.00
2013-9-2,93,84,77,76,72,68,86,69,50,29.98,29.81,7,1,9,0.05
2013-9-3,100,86,75,74,67,62,78,55,30,29.97,29.84,7,2,10,0.00
2013-9-4,100,86,74,74,68,64,82,57,33,30.02,29.90,7,2,11,0.00
2013-9-5,100,87,76,73,66,61,72,53,28,30.08,29.96,8,2,8,0.00
2013-9-6,100,87,75,73,65,60,70,50,32,30.06,29.91,7,2,10,0.00
2013-9-7,99,87,77,73,67,61,76,54,31,30.02,29.87,9,2,14,0.00
2013-9-8,98,85,74,73,67,62,83,57,31,29.97,29.84,8,2,11,0.00
2013-9-9,97,85,74,71,67,63,80,56,33,29.98,29.88,9,2,14,0.00
2013-9-10,96,84,74,73,66,58,83,58,29,30.08,29.96,9,2,14,0.00
2013-9-11,94,82,72,76,68,62,85,64,44,30.11,29.97,11,1,13,0.02
2013-9-12,96,84,75,72,68,67,79,61,39,30.05,29.89,5,1,7,0.00
2013-9-13,95,83,74,72,69,65,84,64,40,29.95,29.80,8,1,14,0.05
2013-9-14,93,82,72,69,63,59,70,53,39,29.96,29.85,8,2,16,0.00
2013-9-15,95,83,73,71,63,57,60,52,40,30.01,29.92,8,2,13,0.00
2013-9-16,97,85,76,72,66,62,77,55,32,30.07,29.93,7,2,11,0.00
2013-9-17,93,85,77,71,67,64,70,55,40,30.05,29.91,5,1,9,0.00
2013-9-18,97,86,77,73,67,61,73,56,32,30.00,29.85,7,2,13,0.00
2013-9-19,90,82,74,74,71,64,92,70,53,29.97,29.84,8,2,13,0.22
2013-9-20,74,72,69,71,70,64,96,92,84,29.93,29.82,11,3,20,1.75
2013-9-21,84,71,61,64,53,48,84,57,29,29.97,29.84,13,4,16,0.01
2013-9-22,84,70,57,57,53,50,83,57,32,29.94,29.79,7,1,12,0.00
2013-9-23,87,73,59,59,56,53,79,57,34,29.86,29.74,9,2,14,0.00
2013-9-24,93,78,63,69,58,48,89,56,22,29.91,29.81,9,2,14,0.00
2013-9-25,93,76,61,61,54,46,88,52,23,29.89,29.76,6,1,11,0.00
2013-9-26,95,80,68,63,57,52,62,46,30,29.87,29.77,9,2,14,0.00
2013-9-27,89,79,69,72,66,59,77,65,54,29.93,29.82,10,3,14,0.00
2013-9-28,89,79,75,76,71,68,84,76,64,29.95,29.86,10,4,21,0.07
2013-9-29,83,70,62,63,56,-100,91,67,35,30.04,0.00,7,-8,12,0.00
2013-9-30,87,73,59,67,58,51,89,62,35,29.91,29.80,5,1,9,0.00
2013-10-1,90,79,71,72,69,65,93,73,44,29.93,29.82,8,3,12,0.00
2013-10-2,89,79,73,74,70,67,91,76,53,29.97,29.85,9,3,17,0.00
2013-10-3,91,80,73,74,71,68,89,74,52,29.92,29.80,10,3,16,0.00
2013-10-4,89,80,74,72,70,67,90,73,53,29.90,29.81,10,4,15,0.00
2013-10-5,78,65,51,71,59,44,92,82,61,30.09,29.84,14,5,21,0.21
2013-10-6,73,60,51,50,44,34,93,61,25,30.13,30.02,12,3,16,0.01
2013-10-7,80,63,48,49,42,38,81,51,23,30.16,30.05,6,1,11,0.00
2013-10-8,80,66,50,54,49,41,83,57,36,30.12,29.99,7,1,11,0.00
2013-10-9,82,68,56,60,55,51,86,65,39,30.08,29.97,9,3,12,0.00
2013-10-10,83,71,61,63,58,56,86,66,40,30.06,29.88,9,3,17,0.00
2013-10-11,85,75,67,72,67,61,91,76,61,29.94,29.81,10,4,17,0.01
2013-10-12,90,77,70,76,71,66,91,81,57,30.05,29.86,7,2,19,0.25
2013-10-13,77,71,68,69,67,65,95,88,78,30.19,30.04,8,1,11,0.01
2013-10-14,72,70,68,70,68,66,95,94,90,30.12,29.92,10,4,16,0.79
2013-10-15,79,67,54,73,65,52,95,92,82,30.04,29.89,12,4,17,0.72
2013-10-16,62,55,52,55,52,50,96,89,69,30.10,29.99,12,4,19,0.24
2013-10-17,70,57,46,51,48,44,93,72,41,30.14,29.99,7,1,10,0.00
2013-10-18,70,61,52,57,52,48,89,74,53,30.08,29.90,9,2,21,0.01
2013-10-19,64,52,42,49,41,38,86,68,41,30.22,30.08,12,4,21,0.00
2013-10-20,72,57,45,48,44,40,92,66,36,30.09,29.89,8,2,16,0.00
2013-10-21,72,61,53,64,54,48,88,79,69,30.10,29.92,15,3,20,0.00
2013-10-22,74,58,42,51,45,39,92,67,35,30.17,30.02,6,1,9,0.00
2013-10-23,80,64,50,55,51,47,92,65,37,30.13,30.03,5,1,8,0.00
2013-10-24,78,66,55,56,51,44,85,60,42,30.27,30.05,6,2,13,0.00
2013-10-25,67,57,50,48,45,40,84,65,47,30.42,30.25,10,2,15,0.00
2013-10-26,74,61,53,64,54,46,95,78,68,30.25,30.02,15,3,23,1.59
2013-10-27,70,62,58,60,58,57,96,86,68,30.13,30.01,5,1,11,0.00
2013-10-28,77,66,56,68,62,55,95,86,71,30.12,30.00,10,2,15,0.01
2013-10-29,75,72,68,69,67,65,92,86,81,30.08,29.99,12,4,16,0.00
2013-10-30,72,68,65,68,66,62,94,91,85,30.01,29.80,21,4,23,0.19
2013-10-31,75,68,55,68,56,45,96,71,36,29.87,29.66,19,4,23,0.01
2013-11-1,74,62,51,53,49,44,85,65,42,30.08,29.82,10,2,13,0.00
2013-11-2,67,57,50,44,40,35,74,55,31,30.29,30.08,15,4,27,0.00
2013-11-3,67,56,46,46,41,35,71,58,41,30.22,30.00,10,4,20,0.00
2013-11-4,60,57,53,58,53,45,95,85,67,30.11,30.02,8,2,15,0.80
2013-11-5,68,64,60,67,63,58,96,95,94,30.07,29.93,9,4,16,0.34
2013-11-6,68,54,44,67,50,39,96,85,74,30.37,29.96,18,5,22,0.10
2013-11-7,63,50,40,44,41,38,93,72,43,30.52,30.37,10,2,0,0.00
2013-11-8,66,55,43,49,45,41,94,70,43,30.40,30.14,10,1,0,0.00
2013-11-9,67,59,55,52,48,45,76,68,56,30.24,30.13,12,3,0,0.00
2013-11-10,64,55,51,49,47,44,84,76,49,30.35,30.23,7,0,0,0.00
2013-11-11,72,58,48,54,50,44,92,75,51,30.30,30.17,5,0,0,0.00
2013-11-12,60,48,36,56,34,21,92,62,36,30.70,30.28,22,7,0,0.00
2013-11-13,51,42,28,31,26,22,80,54,41,30.71,30.39,7,1,0,0.00
2013-11-14,59,48,34,46,34,25,79,61,35,30.40,30.04,12,3,0,0.00
2013-11-15,68,59,53,58,52,46,87,78,64,30.04,29.85,16,3,0,0.00
2013-11-16,73,68,62,69,63,58,92,86,76,29.87,29.67,15,5,0,0.00
2013-11-17,86,74,63,69,60,38,92,67,35,30.00,29.68,15,3,0,0.00
2013-11-18,69,61,53,40,35,30,52,38,24,30.18,30.00,12,2,0,0.00
2013-11-19,68,59,54,43,36,31,62,44,27,30.19,30.03,13,3,0,0.00
2013-11-20,64,56,45,53,42,33,81,58,47,30.04,29.91,12,3,0,0.02
2013-11-21,71,63,44,68,60,41,94,90,81,30.20,29.96,23,3,0,0.14
2013-11-22,44,37,35,42,35,33,94,92,89,30.46,30.18,24,8,0,0.34
2013-11-23,42,38,36,38,34,27,95,85,66,30.56,30.44,18,6,0,0.04
2013-11-24,37,34,31,28,26,23,78,72,62,30.62,30.38,15,3,14,0.01
2013-11-25,37,35,33,35,33,27,94,91,73,30.39,30.17,15,2,19,0.70
2013-11-26,51,41,35,37,33,24,92,73,49,30.39,30.13,24,7,24,0.00
2013-11-27,45,36,30,26,22,17,77,58,36,30.49,30.36,15,3,20,0.00
2013-11-28,52,39,30,34,27,22,79,65,45,30.48,30.38,6,1,8,0.00
2013-11-29,57,44,32,42,34,29,91,70,46,30.55,30.37,13,2,13,0.00
2013-11-30,64,52,41,52,44,34,90,75,58,30.37,30.16,10,2,13,0.00
2013-12-1,68,57,51,58,53,48,94,86,69,30.18,29.89,8,2,10,0.00
2013-12-2,67,54,43,53,49,41,96,84,56,29.89,29.67,5,0,8,0.00
2013-12-3,70,56,43,50,46,41,96,73,38,29.68,29.52,11,1,11,0.02
2013-12-4,76,61,47,61,52,37,90,73,52,29.87,29.58,17,3,21,0.00
2013-12-5,47,34,30,37,28,23,92,76,61,30.19,29.87,19,7,24,0.00
2013-12-6,32,30,24,31,27,21,93,91,85,30.54,30.12,11,0,11,0.00
2013-12-7,26,24,20,24,21,16,93,89,84,30.57,30.33,0,0,0,0.00
2013-12-8,34,30,26,32,29,24,94,93,91,30.30,30.08,0,0,0,0.21
2013-12-9,33,32,28,31,29,23,94,89,79,30.44,30.19,7,2,11,0.00
2013-12-10,36,28,21,27,23,17,90,82,67,30.56,30.39,7,2,11,0.00
2013-12-11,44,34,26,35,29,23,92,82,68,30.62,30.36,7,2,12,0.00
2013-12-12,48,37,26,34,30,23,91,76,56,30.64,30.33,7,1,9,0.00
2013-12-13,45,42,41,44,38,31,95,84,65,30.32,29.82,9,2,14,0.07
2013-12-14,46,41,32,45,37,27,96,86,72,30.34,29.80,14,4,23,0.00
2013-12-15,57,42,29,36,32,26,92,70,40,30.38,30.25,6,1,8,0.00
2013-12-16,64,49,38,40,36,32,81,64,41,30.26,30.16,5,2,9,0.00
2013-12-17,67,51,39,42,38,34,82,63,39,30.31,30.21,3,1,7,0.00
2013-12-18,66,52,40,47,42,37,91,70,44,30.27,30.02,13,2,19,0.00
2013-12-19,69,61,51,62,55,47,92,81,69,30.01,29.75,14,5,22,0.00
2013-12-20,68,56,36,64,53,35,94,88,78,29.85,29.76,14,4,22,0.01
2013-12-21,54,44,35,52,43,34,96,95,94,29.78,29.53,12,2,18,1.33
2013-12-22,46,37,30,45,32,26,96,82,65,30.42,29.79,14,6,19,0.01
2013-12-23,44,34,25,32,27,23,91,79,62,30.59,30.40,9,2,12,0.00
2013-12-24,51,38,24,36,29,21,92,74,52,30.58,30.29,11,4,15,0.00
2013-12-25,57,44,36,43,36,30,86,73,58,30.43,30.29,8,3,16,0.00
2013-12-26,52,40,30,39,34,28,94,81,59,30.48,30.35,5,1,8,0.00
2013-12-27,56,44,33,42,37,31,95,79,55,30.48,30.34,3,0,5,0.00
2013-12-28,59,48,37,43,39,35,93,72,52,30.34,29.99,8,2,10,0.00
2013-12-29,52,41,32,42,33,24,84,73,63,30.30,29.95,15,5,23,0.00
2013-12-30,42,34,29,26,22,19,78,64,47,30.44,30.27,15,3,15,0.00
2013-12-31,52,39,27,31,27,22,82,63,40,30.47,30.23,6,2,11,0.00
2014-1-1,61,47,35,49,38,28,83,70,50,30.23,29.89,20,6,25,0.00
2014-1-2,41,32,25,27,20,17,76,63,44,30.50,30.20,18,6,26,0.00